This demonstration page uses our WeatherBlox Daily Observations layout. Learn more.

Left ArrowRight Arrow

Hourly Observations for September 11, 2021

Temp ( °F °C ) Dew Point ( °F °C ) Humidity (%) Winds ( mph kmh ) Pressure ( in mb ) Visibility ( mi km ) Precip ( " mm )
12:54 am 00:54 Clear 68 20 65 18.3 90 90 N N/A 29.86 1011 9 14 N/A
1:54 am 01:54 Clear 67 19.4 64 17.8 91 91 N N/A 29.86 1011 10 16 N/A
2:32 am 02:32 Clear with Mist and Fog 64 17.8 62 16.7 93 93 N N/A 29.87 1011 3 4 N/A
2:39 am 02:39 Clear with Mist and Fog 64 17.8 62 16.7 93 93 N N/A 29.86 1011 6 10 N/A
2:54 am 02:54 Clear with Mist and Fog 64 17.8 63 17.2 96 96 N N/A 29.86 1011 5 8 N/A
3:54 am 03:54 Clear 63 17.2 60 15.6 90 90 N N/A 29.84 1011 8 13 N/A
4:54 am 04:54 Clear 65 18.3 62 16.7 90 90 SE 3 6 29.83 1010 10 16 N/A
5:54 am 05:54 Clear 65 18.3 63 17.2 93 93 N N/A 29.83 1010 7 11 N/A
6:54 am 06:54 Clear 64 17.8 62 16.7 93 93 S 3 6 29.84 1011 7 11 N/A
7:54 am 07:54 Sunny 65 18.3 62 16.7 90 90 SSE 3 6 29.86 1011 7 11 N/A
8:54 am 08:54 Sunny 69 20.6 65 18.3 87 87 S 7 11 29.86 1011 9 14 N/A
9:54 am 09:54 Sunny 75 23.9 65 18.3 71 71 S 13 20 29.85 1011 10 16 N/A
10:54 am 10:54 Sunny 80 26.7 65 18.3 60 60 SSW 9 15 29.85 1011 10 16 N/A
11:54 am 11:54 Sunny 85 29.4 66 18.9 53 53 SSW 10 17 29.84 1011 10 16 N/A
12:54 pm 12:54 Sunny 88 31.1 66 18.9 48 48 SSW 13 20 29.82 1010 10 16 N/A
1:54 pm 13:54 Sunny 91 32.8 66 18.9 44 44 SSW 12 19 29.80 1009 10 16 N/A
2:54 pm 14:54 Sunny 93 33.9 67 19.4 42 42 S 15 24 29.78 1009 10 16 N/A
3:54 pm 15:54 Sunny 94 34.4 67 19.4 41 41 SSW 15 24 29.76 1008 10 16 N/A
4:54 pm 16:54 Sunny 92 33.3 67 19.4 44 44 S 15 24 29.75 1008 10 16 N/A
5:54 pm 17:54 Sunny 93 33.9 66 18.9 41 41 SSW 13 20 29.76 1008 10 16 N/A
6:54 pm 18:54 Sunny 88 31.1 68 20 52 52 S 7 11 29.78 1008 10 16 N/A
7:54 pm 19:54 Clear 82 27.8 67 19.4 60 60 S 12 19 29.77 1008 10 16 N/A
8:54 pm 20:54 Clear 78 25.6 66 18.9 67 67 S 7 11 29.80 1009 10 16 N/A
9:54 pm 21:54 Clear 77 25 65 18.3 66 66 S 7 11 29.81 1010 10 16 N/A
10:54 pm 22:54 Clear 76 24.4 65 18.3 69 69 SSW 3 6 29.82 1010 10 16 N/A
11:54 pm 23:54 Clear 73 22.8 64 17.8 74 74 S 8 13 29.83 1010 10 16 N/A

Powered by AerisWeather